Location: G�ppingen
(48.7089°N, 9.6563°E)
Time: 17:12:36
(UTC+02:00)

O/OREOS (USA 219) - Visible Passes

Search period start: 19 October 2019 00:00
Search period end: 28 October 2019 23:00
Orbit: 621 x 646 km, 72.0° (Epoch: 22 May)

Date Brightness Start Highest point End Pass type
(mag) Time Alt. Az. Time Alt. Az. Time Alt. Az.
19 Oct ? 20:00:26 10° NNW 20:04:56 59° WSW 20:09:27 10° S visible
20 Oct ? 20:22:52 10° NW 20:26:48 29° WSW 20:30:44 10° SSW visible
21 Oct ? 19:05:07 10° NNW 19:09:43 76° ENE 19:14:19 10° SSE visible
21 Oct ? 20:46:04 10° WNW 20:48:31 14° W 20:50:57 10° SW visible
22 Oct ? 19:27:16 10° NW 19:31:44 53° WSW 19:36:12 10° S visible
23 Oct ? 19:49:46 10° NW 19:53:35 26° WSW 19:57:23 10° SSW visible
24 Oct ? 20:13:12 10° WNW 20:15:16 13° W 20:17:19 10° SW visible
25 Oct ? 18:54:07 10° NW 18:58:32 48° WSW 19:02:56 10° S visible
26 Oct ? 19:16:42 10° NW 19:20:21 24° WSW 19:24:01 10° SSW visible
27 Oct ? 18:40:26 10° WNW 18:42:00 12° W 18:43:34 10° WSW visible
